FW0503 Weather Reports


time (UTC)temp
C
wind
direction
speed
KPH
gust
KPH
rain 1hr
cm
rain 24hr
cm
rain mn
cm
humidity
%
barometer
mb
20260505064509 11 129 0.0 0.0 0.00 0.03 0.00 67 1010.1
20260505064004 11 129 0.0 0.0 0.00 0.03 0.00 67 1010.1
20260505063500 12 129 0.0 0.0 0.00 0.03 0.00 65 1009.9
20260505063000 12 129 0.0 0.0 0.00 0.03 0.00 64 1009.7
20260505062726 12 129 0.0 1.6 0.00 0.03 0.03 63 1009.8
20260505062001 13 129 0.0 1.6 0.00 0.03 0.03 62 1009.8
20260505061500 13 129 0.0 3.2 0.00 0.03 0.03 62 1009.8
20260505061214 13 131 1.6 3.2 0.00 0.03 0.03 62 1009.8
20260505060714 13 134 0.0 3.2 0.00 0.03 0.03 61 1009.8
20260505055956 13 119 1.6 3.2 0.00 0.03 0.03 61 1009.9
20260505055456 13 110 1.6 3.2 0.00 0.03 0.03 61 1009.8
20260505054956 13 70 0.0 1.6 0.00 0.03 0.03 61 1009.8
20260505054451 13 70 0.0 3.2 0.00 0.03 0.03 61 1009.8
20260505053947 13 70 0.0 3.2 0.00 0.03 0.03 61 1009.8
20260505053446 14 141 1.6 3.2 0.00 0.03 0.03 60 1009.9
20260505052926 14 126 0.0 4.8 0.00 0.03 0.03 59 1009.9
20260505052427 14 110 1.6 4.8 0.00 0.03 0.03 59 1010.0
20260505051926 14 101 0.0 11.3 0.00 0.03 0.03 57 1010.0
20260505051427 15 284 0.0 11.3 0.00 0.03 0.03 57 1010.0
20260505050926 15 221 1.6 3.2 0.00 0.03 0.03 56 1010.1
20260505050645 15 270 0.0 3.2 0.00 0.03 0.03 55 1010.0
20260505041348 15 335 1.6 6.4 0.00 0.03 0.03 53 1010.0
20260505040849 16 59 0.0 4.8 0.00 0.03 0.03 52 1009.9
20260505040612 16 124 1.6 4.8 0.00 0.03 0.03 52 1010.0
20260505035848 16 119 0.0 1.6 0.00 0.03 0.03 54 1010.0
20260505035608 16 119 0.0 6.4 0.00 0.03 0.03 53 1010.1
20260505034848 16 138 0.0 6.4 0.00 0.03 0.03 52 1010.0
20260505034343 16 125 1.6 6.4 0.00 0.03 0.03 52 1009.9
20260505033845 16 119 0.0 9.7 0.00 0.03 0.03 50 1009.9
20260505033340 16 131 1.6 9.7 0.00 0.03 0.03 50 1009.8
20260505032839 16 126 1.6 6.4 0.00 0.03 0.03 50 1009.8
20260505032339 16 108 0.0 3.2 0.00 0.03 0.03 49 1009.5
20260505032103 16 250 0.0 1.6 0.00 0.03 0.03 46 1009.5
20260505031601 17 252 0.0 1.6 0.00 0.03 0.03 46 1009.4
20260505031056 17 252 0.0 3.2 0.00 0.03 0.03 44 1009.2
20260505030320 17 252 1.6 3.2 0.00 0.03 0.03 44 1009.0
20260505025820 17 272 0.0 4.8 0.00 0.03 0.03 44 1009.2
20260505025320 17 291 3.2 6.4 0.00 0.03 0.03 44 1009.1
20260505024820 17 283 1.6 12.9 0.00 0.03 0.03 44 1009.0
20260505024321 17 335 4.8 14.5 0.00 0.03 0.03 44 1008.7
20260505023820 17 42 8.0 14.5 0.00 0.03 0.03 46 1008.7
20260505023315 17 306 6.4 9.7 0.00 0.03 0.03 46 1009.0
20260505022816 17 302 3.2 12.9 0.00 0.03 0.03 46 1009.0
20260505022315 17 271 6.4 16.1 0.00 0.03 0.03 46 1009.1
20260505021816 17 272 6.4 16.1 0.00 0.03 0.03 48 1009.0
20260505021316 17 280 6.4 9.7 0.00 0.03 0.03 48 1008.9
20260505021043 17 283 6.4 12.9 0.00 0.03 0.03 46 1008.9
20260505020538 17 319 8.0 12.9 0.00 0.03 0.03 46 1008.6
20260505015812 18 74 4.8 17.7 0.00 0.03 0.03 46 1008.5
20260505015311 18 326 6.4 17.7 0.00 0.03 0.03 44 1008.5
20260505015030 18 287 4.8 16.1 0.00 0.03 0.03 43 1008.4
20260505014307 18 293 9.7 19.3 0.00 0.03 0.03 41 1008.3
20260505014028 19 287 11.3 24.1 0.00 0.03 0.03 39 1008.3
20260505013751 20 311 11.3 27.4 0.00 0.03 0.03 36 1008.2
20260505012807 21 300 14.5 27.4 0.00 0.03 0.03 33 1007.9
20260505012307 21 281 6.4 20.9 0.00 0.03 0.03 32 1007.7
20260505012031 21 225 9.7 20.9 0.00 0.03 0.03 32 1007.6
20260505011303 21 269 6.4 19.3 0.00 0.03 0.03 31 1007.6
20260505010803 21 249 6.4 19.3 0.00 0.03 0.03 31 1007.7
20260505010303 21 1 4.8 12.9 0.00 0.03 0.03 32 1007.7
20260505005802 21 278 4.8 12.9 0.00 0.03 0.03 31 1007.9
20260505005304 21 189 3.2 14.5 0.00 0.03 0.03 31 1007.8
20260505004758 22 12 6.4 14.5 0.00 0.03 0.03 31 1007.8
20260505004253 22 226 6.4 14.5 0.00 0.03 0.03 31 1007.8
20260505004011 22 231 3.2 9.7 0.00 0.03 0.03 30 1007.8
20260505003254 22 243 6.4 19.3 0.00 0.03 0.03 30 1007.8
20260505002753 22 234 9.7 19.3 0.00 0.03 0.03 30 1007.9
20260505002253 22 239 3.2 11.3 0.00 0.03 0.03 31 1007.8
20260505001750 22 15 3.2 11.3 0.00 0.03 0.03 31 1007.9
20260505001250 22 324 3.2 9.7 0.00 0.03 0.03 31 1007.9
20260505001006 22 258 3.2 16.1 0.00 0.03 0.03 32 1008.1
20260505000249 22 286 3.2 16.1 0.00 0.03 0.03 32 1008.1
20260504235750 22 75 3.2 9.7 0.00 0.03 0.03 33 1008.1
20260504235250 22 105 3.2 11.3 0.00 0.03 0.03 34 1008.2
20260504234745 21 337 4.8 11.3 0.00 0.03 0.03 35 1008.2
20260504234240 21 26 3.2 12.9 0.00 0.03 0.03 35 1008.4
20260504233740 21 104 3.2 19.3 0.00 0.03 0.03 35 1008.4
20260504233241 21 103 6.4 30.6 0.00 0.03 0.03 35 1008.5
20260504233001 21 303 9.7 30.6 0.00 0.03 0.03 35 1008.5
20260504232458 22 103 1.6 8.0 0.00 0.03 0.03 32 1008.5
20260504231736 22 297 6.4 8.0 0.00 0.03 0.03 31 1008.5
20260504231235 22 132 1.6 6.4 0.00 0.03 0.03 32 1008.5
20260504230736 22 124 1.6 8.0 0.00 0.03 0.03 33 1008.7
20260504230236 22 73 1.6 8.0 0.00 0.03 0.03 34 1008.7
20260504225737 22 70 0.0 6.4 0.00 0.03 0.03 38 1008.7
20260504225231 22 148 1.6 6.4 0.00 0.03 0.03 42 1008.5
20260504224949 22 26 3.2 6.4 0.00 0.03 0.03 40 1008.5
20260504224230 22 333 3.2 11.3 0.00 0.03 0.03 35 1008.5
20260504223731 22 15 6.4 11.3 0.00 0.03 0.03 35 1008.4
20260504223230 22 40 1.6 6.4 0.00 0.03 0.03 35 1008.5
20260504222732 22 324 1.6 6.4 0.00 0.03 0.03 35 1008.6
20260504222228 22 226 3.2 6.4 0.00 0.03 0.03 34 1008.5
20260504221722 22 245 1.6 9.7 0.00 0.03 0.03 35 1008.7
20260504221219 22 266 3.2 9.7 0.00 0.03 0.03 35 1008.5
20260504220713 22 23 3.2 11.3 0.00 0.03 0.03 34 1008.5
20260504220212 22 15 4.8 12.9 0.00 0.03 0.03 33 1008.6
20260504215713 22 344 4.8 14.5 0.00 0.03 0.03 33 1008.6
20260504215701 22 261 6.4 14.5 0.00 0.03 0.03 32 1008.7
20260504214714 22 308 4.8 11.3 0.00 0.03 0.03 33 1008.7
20260504214209 22 53 1.6 12.9 0.00 0.03 0.03 33 1008.9
20260504213709 22 131 8.0 14.5 0.00 0.03 0.03 33 1008.7
20260504213208 23 117 6.4 14.5 0.00 0.03 0.03 31 1008.9
20260504212709 22 66 3.2 6.4 0.00 0.03 0.03 31 1009.0
20260504212209 22 295 0.0 17.7 0.00 0.03 0.03 31 1009.2
20260504211704 21 253 8.0 17.7 0.00 0.03 0.03 32 1009.4
20260504211159 21 321 8.0 17.7 0.00 0.03 0.03 32 1009.5
20260504210659 22 242 6.4 12.9 0.00 0.03 0.03 31 1009.5
20260504210159 23 221 3.2 8.0 0.00 0.03 0.03 30 1009.5
20260504205700 23 283 3.2 8.0 0.00 0.03 0.03 30 1009.4
20260504205426 24 83 1.6 8.0 0.00 0.03 0.03 30 1009.4
20260504204659 24 58 0.0 6.4 0.00 0.03 0.03 30 1009.5
20260504204639 23 108 1.6 8.0 0.00 0.03 0.03 30 1009.7
20260504203655 23 263 3.2 8.0 0.00 0.03 0.03 30 1009.7
20260504203416 23 29 3.2 8.0 0.00 0.03 0.03 30 1009.7
20260504202923 23 115 1.6 3.2 0.00 0.03 0.03 31 1009.8
20260504202418 23 123 1.6 4.8 0.00 0.03 0.03 34 1009.8
20260504201650 22 81 1.6 9.7 0.00 0.03 0.03 31 1010.0
20260504201419 22 48 3.2 16.1 0.00 0.03 0.03 33 1010.0
20260504200651 22 247 4.8 16.1 0.00 0.03 0.03 33 1010.1
20260504200152 22 292 6.4 11.3 0.00 0.03 0.03 32 1010.0
20260504195652 22 332 3.2 11.3 0.00 0.03 0.03 33 1010.1
20260504195152 22 247 1.6 11.3 0.00 0.03 0.03 34 1010.2
20260504194647 22 336 4.8 11.3 0.00 0.03 0.03 34 1010.4
20260504194148 21 279 1.6 14.5 0.00 0.03 0.03 35 1010.4
20260504193920 21 255 1.6 14.5 0.00 0.03 0.03 36 1010.5
20260504193147 21 293 4.8 11.3 0.00 0.03 0.03 36 1010.6
20260504192647 21 340 4.8 14.5 0.00 0.03 0.03 37 1010.6
20260504192147 20 297 4.8 14.5 0.00 0.03 0.03 38 1010.7
20260504191648 20 10 8.0 14.5 0.00 0.03 0.03 37 1010.8
20260504191143 21 10 11.3 14.5 0.00 0.03 0.03 37 1010.9
20260504190638 21 67 3.2 9.7 0.00 0.03 0.03 36 1010.9
20260504190138 21 122 1.6 9.7 0.00 0.03 0.03 38 1010.9
20260504185638 20 86 4.8 9.7 0.00 0.03 0.03 39 1011.0
20260504185139 20 13 4.8 9.7 0.00 0.03 0.03 40 1011.0
20260504184639 20 4 1.6 6.4 0.00 0.03 0.03 39 1011.3
20260504184138 20 304 4.8 6.4 0.00 0.03 0.03 39 1011.4
20260504183856 20 103 0.0 6.4 0.00 0.03 0.03 39 1011.5
20260504183355 20 304 3.2 6.4 0.00 0.03 0.03 39 1011.6
20260504182629 20 64 1.6 8.0 0.00 0.03 0.03 41 1011.7
20260504182129 20 1 1.6 8.0 0.03 0.03 0.03 41 1012.0
20260504181843 19 56 3.2 9.7 0.03 0.03 0.03 44 1012.0
20260504181124 18 63 4.8 9.7 0.03 0.03 0.03 43 1012.1
20260504180619 18 105 1.6 6.4 0.03 0.03 0.03 46 1012.2
20260504180115 18 70 3.2 6.4 0.03 0.03 0.03 46 1012.4
20260504175615 17 288 1.6 3.2 0.03 0.03 0.03 50 1012.5
20260504175116 17 309 0.0 4.8 0.03 0.03 0.03 49 1012.6
20260504174615 17 41 1.6 4.8 0.03 0.03 0.03 51 1012.6
20260504174110 17 64 0.0 3.2 0.03 0.03 0.03 50 1012.8
20260504173605 17 101 0.0 1.6 0.03 0.03 0.03 56 1012.8
20260504173106 16 101 0.0 4.8 0.03 0.03 0.03 61 1012.8
20260504172606 16 102 1.6 4.8 0.03 0.03 0.03 64 1012.9
20260504172105 16 110 0.0 4.8 0.00 0.00 0.00 62 1013.0
20260504171606 16 48 1.6 8.0 0.00 0.00 0.00 56 1013.0
20260504171105 17 30 3.2 8.0 0.00 0.00 0.00 54 1013.0
20260504170602 17 32 3.2 4.8 0.00 0.00 0.00 54 1012.8
20260504151028 16 74 6.4 20.9 0.00 0.00 0.00 51 1013.8
20260504150523 16 124 8.0 24.1 0.00 0.00 0.00 51 1013.8
20260504141013 16 314 9.7 20.9 0.00 0.00 0.00 51 1013.8
20260504140514 15 16 8.0 20.9 0.00 0.00 0.00 53 1013.9
20260504130500 14 134 4.8 16.1 0.00 0.00 0.00 56 1013.6
20260504130442 13 109 3.2 8.0 0.00 0.00 0.00 59 1013.6
20260504110656 13 109 3.2 9.7 0.00 0.00 0.00 60 1013.9
20260504110155 13 119 4.8 9.7 0.00 0.00 0.00 60 1013.8
20260504100415 15 70 6.4 11.3 0.00 0.00 0.00 54 1014.1
20260504090115 17 123 0.0 4.8 0.00 0.00 0.00 38 1012.9
20260504081843 17 96 3.2 4.8 0.00 0.00 0.00 37 1012.5
20260504081343 17 120 0.0 4.8 0.00 0.00 0.00 38 1012.4
20260504080844 17 64 0.0 3.2 0.00 0.00 0.00 37 1012.4
20260504080339 17 70 1.6 3.2 0.00 0.00 0.00 37 1012.3
20260504070256 18 108 3.2 9.7 0.00 0.00 0.00 33 1012.2